SCP
-0 -0 -0 -0 -0 0 0 0 -0 -0 -0 -0 -0 -0 -0 -0 -0 -0 -0 -0 -0 0 -0 -0 -0 0 0 0 0 0 0 0 0 0 0 0 0 0 0 0 0 0 0 0 0 0 0 0 0
-0 -0 -0 0 -0 0 -0 0 -0 0 -0 -0 -0 -0 -0 -0 -0 -0 -0 -0 -0 -0 -0 -0 -0 0 0 0 0 0 0 0 0 0 0 0 0 0 0 0 0 0 0 0 0 0 0 0 0
0 -0 -0 0 0 0 -0 -0 -0 -0 -0 -0 -0 -0 0 0 -0 0 -0 -0 -0 -0 -0 -0 -0 0 0 0 0 0 0 0 0 0 0 0 0 0 0 0 0 0 0 0 0 0 0 0 0
0 0 0 0 0 0 -0 -0 0 -0 -0 0 -0 -0 -0 -0 -0 -0 -0 -1 -0 -0 -0 -0 0 0 0 0 0 0 0 0 0 0 0 0 0 0 0 0 0 0 0 0 0 0 0 0 0
0 -0 0 -0 0 -0 -0 -0 -0 0 -0 0 -0 -0 -0 -0 -0 -0 -1 -1 -1 -0 -0 -0 0 0 0 0 0 0 0 0 0 0 0 0 0 0 0 0 0 0 0 0 0 0 0 0 0
0 0 0 0 -0 -0 -0 -0 -0 -0 -0 -0 -0 -0 -0 -0 -0 -1 -1 -0 -0 -0 -0 -0 0 0 0 0 0 0 0 0 0 0 0 0 0 0 0 0 0 0 0 0 0 0 0 0 0
-0 -0 0 -0 0 -0 -0 0 -0 0 -0 0 -0 -0 0 -0 0 -0 -0 -0 -0 0 0 0 0 0 0 0 0 0 0 0 0 0 0 0 0 0 0 0 0 0 0 0 0 0 0 0 0
0 -0 -0 -0 -0 -0 -0 -0 0 0 0 -1 -0 -0 0 -0 -0 -0 -0 -0 -0 0 0 0 0 0 0 0 0 0 0 0 0 0 0 0 0 0 0 0 0 0 0 0 0 0 0 0 -0
-0 0 0 0 -0 -0 0 0 0 0 -1 -2 -1 -0 0 0 -0 -0 -0 0 0 0 0 0 0 0 0 0 0 0 0 0 0 0 0 0 0 0 0 0 0 0 0 0 0 0 -0 0 0
0 -0 0 -0 -0 -0 -0 -0 0 0 -0 -1 -0 -0 -0 -0 0 0 0 0 0 0 0 0 0 0 0 0 0 0 0 0 0 0 0 0 0 0 -0 0 0 0 0 0 0 0 0 0 0
0 0 0 0 0 0 0 -0 0 -0 0 0 0 0 0 0 0 0 0 0 0 0 0 0 0 0 0 0 0 0 0 0 0 0 0 0 0 0 0 0 0 0 0 0 0 0 0 0 0
0 0 0 0 0 -0 -0 0 -0 -0 0 0 0 0 0 0 0 0 0 0 0 0 0 0 0 0 0 0 0 0 0 0 0 0 0 0 0 0 0 0 0 0 0 0 0 0 0 0 0
0 0 0 -0 -1 -1 -1 -0 -0 0 0 0 0 0 0 0 0 0 0 0 0 0 0 0 0 0 0 0 0 0 0 0 0 0 0 0 0 0 0 0 0 0 0 0 0 0 0 0 0
0 0 0 -0 -0 -0 -0 -0 0 0 0 0 0 0 0 0 0 0 0 0 0 0 0 0 0 0 0 0 0 0 0 0 0 0 0 0 0 0 0 0 0 0 0 0 0 0 0 0 0
-0 0 0 0 0 0 -0 -0 0 0 0 0 0 0 0 0 0 0 0 0 0 0 0 0 0 0 0 0 0 0 0 0 0 0 0 0 0 0 0 0 0 0 0 0 0 0 0 0 0
-0 0 0 -0 -0 0 0 0 0 0 0 0 0 0 0 0 0 0 0 0 0 0 0 0 0 0 0 0 -0 0 0 0 0 0 0 0 0 0 0 0 0 0 0 0 0 0 0 0 0
0 0 0 -0 0 -0 0 1 0 0 0 0 0 0 0 0 0 0 0 0 0 0 0 0 0 0 0 0 -0 0 0 0 0 0 0 0 0 0 0 0 0 0 0 0 0 0 0 0 0
0 0 0 0 -0 0 0 1 0 0 0 0 0 0 0 0 0 0 0 0 0 -0 -0 0 0 0 0 -0 0 0 0 0 0 0 0 0 0 0 0 0 0 0 0 0 0 0 0 0 0
0 0 0 0 0 0 0 1 0 0 0 0 0 0 0 0 0 0 0 0 -0 0 0 0 0 0 0 0 0 0 0 0 0 0 0 0 0 0 0 0 0 0 0 0 0 0 0 0 0
-0 0 0 0 0 0 0 0 1 0 0 0 0 0 0 0 0 -0 0 0 0 0 0 0 0 0 0 0 0 0 0 0 0 0 0 0 0 0 0 0 0 0 0 -0 0 0 0 0 0
0 0 0 -0 0 0 0 0 0 -0 -0 0 0 0 0 0 0 0 0 0 0 0 0 0 0 -0 0 0 0 0 0 0 0 0 0 0 0 0 0 0 0 -0 -0 -0 -0 0 0 0 0
0 0 0 0 0 0 0 0 0 0 0 0 0 0 0 0 0 0 0 0 0 0 0 0 0 0 0 0 0 0 0 0 0 0 0 0 0 0 -0 -0 -0 0 0 0 -0 0 0 0 0
0 0 0 0 0 0 0 0 0 0 -0 0 0 0 0 0 0 0 0 0 0 0 0 0 0 0 0 0 0 0 0 0 0 0 0 0 0 0 0 0 0 0 0 0 0 0 0 0 0
0 0 0 0 0 0 0 0 0 0 0 0 0 0 0 0 0 0 0 0 0 0 0 0 0 0 0 0 0 0 0 0 0 0 0 0 0 0 0 0 0 0 0 0 0 0 0 0 0
0 0 0 0 -0 0 0 0 0 0 0 0 0 0 0 0 0 0 0 0 0 0 0 0 0 0 0 0 0 0 0 0 0 0 0 0 0 0 0 0 0 0 0 0 0 0 0 0 0
0 0 0 0 0 0 0 0 0 0 0 0 0 0 0 0 0 0 0 0 0 0 0 0 0 0 0 0 0 0 0 0 0 0 0 0 0 0 0 0 0 0 0 0 0 0 0 0 0
0 0 0 0 -0 0 0 0 0 0 0 0 0 0 0 0 0 0 0 0 0 0 0 0 0 0 0 0 0 0 0 0 0 0 0 0 0 0 0 0 0 0 0 0 0 0 0 0 0
0 0 0 0 -0 0 0 0 0 0 0 0 0 0 0 0 0 0 0 0 0 0 0 0 0 0 0 0 0 0 0 0 0 0 0 0 0 0 0 0 0 0 -0 -0 -0 0 0 0 0
0 0 0 0 -0 0 0 0 0 0 0 0 0 0 0 0 0 0 0 0 0 0 0 0 0 0 0 0 0 0 0 0 0 0 0 0 -0 -0 0 -0 -0 -0 0 0 0 0 -0 0 0
0 0 0 0 -0 -0 -0 0 0 0 0 0 0 0 0 0 0 0 0 0 0 0 0 0 0 0 0 0 0 0 0 0 0 0 0 0 0 0 -0 0 -0 -0 -0 -0 0 0 -0 0 0
Wind_Speed_500mb
26 19 29 25 9 8 22 18 0 38 38 47 61 49 51 50 24 20 36 32 37 35 23 19 17 15 14 13 12 11 8 7 6 4 6 9 12 15 18 20 22 23 27 30 32 32 32 32 33
16 14 19 11 8 12 7 26 40 33 43 34 63 59 61 41 49 37 28 23 32 28 18 19 16 14 11 8 9 9 6 5 2 1 4 9 12 16 18 20 21 24 26 29 30 31 32 32 32
15 3 16 10 2 9 14 25 46 68 59 27 22 42 29 27 43 32 35 27 23 20 14 19 16 15 11 9 9 8 7 5 6 7 10 12 16 19 19 19 19 21 23 24 27 29 30 32 35
9 23 16 16 25 44 57 39 53 66 44 10 45 32 41 41 38 33 27 26 34 23 23 16 16 14 12 10 9 8 6 5 8 11 14 16 19 20 18 17 16 16 16 18 22 24 27 28 30
18 20 9 16 42 16 55 85 101 41 66 16 47 35 36 34 33 30 36 37 31 28 22 19 12 12 11 10 10 8 4 8 10 12 14 17 18 17 15 14 12 9 9 9 13 18 21 25 32
27 36 18 2 50 29 72 99 87 50 28 63 57 42 18 20 29 38 42 46 37 32 25 22 19 13 10 8 7 4 2 5 8 10 12 14 15 14 12 9 7 5 4 1 8 16 22 28 33
28 24 9 27 20 29 49 50 45 33 46 24 48 35 25 29 30 40 45 42 35 29 25 23 18 14 8 6 5 5 3 2 4 7 9 11 12 11 9 7 5 6 6 7 11 18 23 29 30
39 21 10 33 11 6 36 29 64 45 5 44 35 27 35 29 40 37 35 39 35 36 29 21 14 11 14 6 7 6 3 2 5 5 5 6 6 8 10 13 13 11 12 15 16 20 26 29 28
29 13 11 7 26 21 47 23 43 41 64 79 71 58 39 37 36 40 36 33 35 30 29 24 16 9 4 3 3 3 3 2 3 6 7 6 12 9 12 15 13 23 29 29 25 22 21 14 25
12 25 5 21 31 26 45 16 57 27 48 50 56 45 37 45 44 43 40 37 24 24 16 18 19 23 13 7 6 15 5 4 9 2 9 4 16 31 13 21 35 37 35 23 15 12 11 14 13
12 6 7 31 23 35 39 45 49 49 27 38 36 39 43 44 44 46 42 40 32 24 25 31 17 23 16 15 9 7 5 13 14 20 22 16 18 35 15 18 41 37 29 10 11 6 12 10 10
5 15 19 15 11 35 31 25 52 60 33 37 36 34 29 34 36 35 36 31 28 29 28 24 16 28 25 23 17 6 12 7 11 15 24 26 42 31 24 34 9 13 10 1 14 19 19 19 20
6 11 23 27 42 47 48 45 38 45 37 35 37 39 43 45 39 40 36 36 30 26 24 29 27 19 19 13 16 11 9 10 16 21 28 23 33 40 43 37 48 38 30 24 37 43 37 26 20
17 14 19 25 36 34 44 33 22 25 31 37 37 43 42 41 33 29 27 33 26 25 26 21 23 21 19 15 8 4 5 10 11 29 36 42 44 44 48 48 52 49 51 57 55 53 57 37 45
54 33 40 8 21 26 55 36 26 23 28 39 44 39 35 31 24 27 26 26 28 32 32 39 33 36 28 25 21 12 15 14 17 20 26 31 35 34 35 38 43 48 51 57 52 49 44 39 39
51 30 16 52 75 36 46 15 37 32 29 40 37 33 32 28 28 29 29 30 32 38 30 26 28 26 25 26 23 24 32 21 33 28 30 25 26 25 26 30 33 35 35 33 27 40 42 37 39
13 20 22 20 85 58 14 25 35 39 35 46 38 33 29 27 30 29 28 30 28 21 27 27 29 27 24 25 17 19 21 23 30 13 13 37 39 31 31 31 27 30 31 36 39 41 36 39 34
19 10 18 31 61 14 15 28 39 47 45 42 35 30 26 24 28 28 29 24 20 22 21 27 27 33 24 26 23 21 19 21 25 20 26 22 25 19 23 30 32 39 33 37 39 35 30 32 27
18 9 7 7 15 28 10 29 30 52 45 40 31 23 21 23 26 22 18 17 18 14 22 24 29 33 32 30 28 25 28 20 22 14 19 15 19 24 29 35 32 29 29 32 33 33 31 27 18
25 11 11 7 20 35 29 16 22 49 47 44 33 26 24 23 27 17 25 8 12 12 11 17 23 36 31 35 30 29 26 31 14 24 28 20 36 30 35 31 32 31 33 34 30 35 36 31 22
18 22 25 34 20 34 10 24 34 34 37 33 22 31 26 26 27 26 18 15 14 18 15 26 26 34 25 26 33 31 30 33 37 37 34 34 31 32 26 31 31 31 33 31 32 34 28 25 20
18 21 32 36 34 20 16 5 8 10 15 15 26 37 33 33 27 23 21 14 28 11 25 26 24 20 24 37 35 37 32 34 35 29 28 28 30 28 29 34 26 31 31 31 33 29 23 18 20
23 33 31 40 39 11 0 10 9 26 21 13 28 29 36 30 23 16 16 22 16 15 18 26 24 26 33 46 38 37 34 34 31 33 29 23 19 23 27 30 24 26 27 24 22 20 15 14 17
23 33 45 35 18 7 10 2 14 17 13 25 24 31 26 17 8 14 15 25 20 17 23 31 32 39 49 46 34 39 44 39 35 36 29 25 24 24 29 29 27 22 20 18 16 15 14 15 18
40 35 21 20 22 23 14 28 15 31 31 28 24 18 15 11 10 13 15 20 19 30 27 16 30 38 39 33 38 45 38 33 34 35 35 33 29 30 29 24 20 15 14 15 14 11 10 10 10
25 25 20 30 28 29 36 13 9 26 27 18 18 18 11 12 22 30 19 24 30 21 24 32 32 31 34 41 43 41 37 36 38 38 35 24 24 25 26 19 12 13 14 16 18 16 9 5 6
14 24 26 22 33 18 15 16 7 8 13 19 23 10 11 29 24 23 27 22 18 30 32 28 30 40 40 44 35 35 39 37 38 35 32 23 22 20 17 14 13 15 12 15 22 25 15 15 13
26 28 16 15 17 22 18 25 11 18 15 20 17 39 28 19 24 31 36 28 29 32 36 37 38 35 41 38 33 35 38 48 34 37 31 23 18 15 18 20 14 11 15 14 19 28 20 21 18
19 22 14 7 5 9 7 13 17 27 20 23 29 29 29 30 23 29 32 32 36 37 38 39 40 34 34 35 40 48 47 31 32 38 30 26 17 18 21 21 22 22 12 13 18 24 23 23 25
23 15 19 12 20 18 29 10 18 23 21 27 27 25 20 23 31 31 35 35 38 34 34 38 33 32 33 31 42 41 39 38 35 38 29 23 20 17 17 14 13 15 15 13 14 7 8 12 18
Wind_Direction_500mb
313 346 5 292 50 165 247 145 259 83 69 71 78 77 74 59 86 110 100 79 93 78 96 109 102 99 96 99 102 105 119 127 138 103 100 115 120 121 118 114 109 104 97 92 86 77 68 60 54
306 288 268 83 75 295 104 159 95 93 54 86 99 85 71 70 87 96 108 93 86 84 102 107 97 91 96 95 107 121 138 169 208 116 133 143 136 127 123 118 113 106 101 91 80 71 63 55 49
289 201 265 119 163 270 262 105 74 33 118 122 73 62 46 54 79 102 109 102 90 85 99 91 87 90 82 89 99 111 137 164 167 171 169 160 148 147 143 132 121 110 97 88 78 65 56 48 42
287 246 237 212 191 214 247 84 76 32 356 180 99 75 67 75 88 99 86 109 93 94 51 67 81 76 81 102 109 107 148 171 171 176 171 161 159 157 151 136 123 112 102 93 75 57 44 36 30
256 262 246 261 291 96 75 72 75 82 322 16 89 100 88 91 89 95 107 102 101 76 63 43 60 75 90 110 124 136 186 182 174 176 170 166 166 162 152 146 139 122 107 87 52 32 24 19 17
266 251 80 60 251 81 85 88 81 77 236 271 114 104 94 111 100 107 100 90 90 90 73 45 57 66 76 106 135 127 182 182 180 176 171 172 173 173 168 165 159 165 167 104 17 13 10 8 8
260 286 115 217 301 56 121 100 121 186 225 223 125 96 124 112 108 94 92 82 83 71 48 62 41 46 77 89 88 85 102 163 176 171 177 179 183 191 197 213 231 254 269 308 336 347 351 356 3
260 294 295 216 170 174 88 119 131 160 190 54 118 124 118 119 90 95 85 81 80 70 59 71 76 57 65 71 105 107 53 188 206 197 198 205 231 251 261 264 265 261 291 301 315 326 337 348 9
259 268 346 340 135 71 44 22 117 95 82 75 79 98 111 106 108 107 95 87 80 77 53 65 38 35 36 90 153 88 125 164 100 29 315 290 294 309 283 284 278 299 313 303 305 326 353 12 15
85 303 156 13 39 118 122 127 97 71 77 65 65 73 76 86 77 78 75 75 84 86 44 88 79 26 51 111 98 117 145 124 127 148 257 244 303 260 217 277 289 285 288 295 296 360 10 26 350
51 237 76 45 56 102 98 62 63 118 68 67 74 68 69 70 71 73 70 74 71 78 72 61 80 42 28 53 106 144 213 257 261 240 228 224 265 263 253 279 264 264 262 251 249 263 215 219 293
19 359 62 43 24 73 79 73 69 73 87 83 81 82 86 92 90 88 78 74 70 80 66 62 66 48 58 68 63 59 127 229 227 234 241 234 237 266 261 267 282 22 350 220 189 235 211 241 296
152 78 78 70 77 83 85 79 86 76 84 87 86 83 87 85 83 81 83 88 72 74 65 52 50 63 66 48 48 49 59 250 230 241 244 262 243 256 268 271 287 290 280 276 274 266 250 256 295
98 122 128 142 134 127 104 95 60 87 97 89 88 86 85 79 83 93 96 84 81 75 65 41 41 38 34 40 63 64 343 283 263 259 262 270 274 271 269 262 270 272 276 284 280 272 267 275 302
52 31 7 119 151 124 119 64 99 120 111 103 91 88 87 84 88 84 83 82 70 67 65 50 27 25 25 27 13 353 347 305 297 283 285 281 285 283 279 275 272 273 278 276 277 281 298 285 290
76 58 21 313 321 329 222 165 133 150 132 118 102 95 95 89 87 91 88 84 76 67 54 54 53 37 23 20 4 350 353 348 343 334 341 348 335 321 313 307 301 294 293 285 267 277 289 280 283
332 124 156 223 255 254 1 141 149 164 140 115 108 104 100 101 98 92 86 81 71 61 55 49 22 45 29 356 12 340 340 327 322 324 336 330 331 336 341 338 331 324 311 300 295 292 291 280 289
187 141 117 215 269 286 109 111 155 152 125 115 117 119 117 115 104 91 73 74 78 63 49 34 27 10 29 6 6 346 342 341 312 315 326 335 330 333 325 319 318 308 309 311 308 307 293 284 279
1 143 63 306 301 311 344 144 157 125 126 116 123 123 122 123 102 96 108 105 75 32 44 28 19 13 8 6 359 350 340 341 326 346 333 290 303 310 311 298 287 287 293 303 306 294 287 285 261
322 353 80 277 249 255 294 194 144 141 122 122 142 144 143 142 139 120 94 95 70 53 34 360 357 354 348 10 1 341 347 331 343 347 335 320 328 316 319 303 291 289 291 290 295 296 292 265 235
23 355 343 325 257 273 294 37 48 37 87 123 122 133 124 117 111 104 90 65 31 16 356 5 358 6 358 354 346 330 323 307 327 320 320 316 320 311 320 306 298 286 284 289 290 298 296 264 230
346 352 324 312 308 332 92 262 137 62 60 148 131 107 114 113 101 96 87 46 336 356 23 11 2 8 344 342 342 332 336 328 317 328 311 320 321 333 320 303 312 301 299 293 289 299 296 274 251
344 327 297 293 284 68 352 124 79 150 229 144 103 106 113 111 102 105 3 40 12 2 17 5 347 339 334 341 338 332 319 318 318 315 316 319 341 331 311 323 312 318 311 309 301 306 302 276 261
295 319 310 295 303 302 126 351 40 31 101 108 106 106 103 105 75 353 67 21 20 9 354 342 357 349 341 348 344 334 335 337 339 338 335 338 333 305 318 319 320 317 325 330 336 334 308 284 272
353 335 324 347 327 335 346 67 39 64 64 104 123 120 112 68 21 57 55 23 4 356 351 1 343 349 350 338 340 342 348 351 347 340 332 336 337 324 335 339 340 342 357 5 354 343 331 316 292
341 346 344 325 316 301 46 61 32 59 90 103 119 125 77 53 42 42 39 16 350 14 357 345 354 353 338 333 345 353 345 337 332 327 328 324 311 325 331 345 359 13 28 17 16 344 335 329 353
9 337 328 286 277 273 122 93 84 131 90 85 109 72 37 59 47 26 350 5 36 19 8 9 4 352 346 353 356 344 344 349 343 347 343 338 332 339 10 23 20 36 39 29 19 25 37 69 87
2 328 348 332 322 338 103 80 75 107 108 91 61 78 76 59 50 18 56 42 24 9 354 346 345 348 359 0 350 344 349 345 345 352 348 347 1 33 57 43 45 58 61 45 39 42 60 61 73
17 8 350 359 302 338 274 78 77 85 62 78 88 72 59 57 20 30 33 23 13 4 360 3 6 3 4 356 352 350 352 6 1 359 2 14 26 53 67 50 36 40 47 39 37 38 36 48 46
59 20 10 349 343 39 328 65 76 59 58 92 92 75 61 24 34 11 22 12 3 7 359 2 10 12 14 2 359 1 11 17 11 9 21 34 39 51 42 43 30 23 32 25 38 37 37 30 31
Wind_Speed_850mb
26 19 29 25 9 8 22 18 0 38 38 47 61 49 51 50 24 20 36 32 37 35 23 19 17 15 14 13 12 11 8 7 6 4 6 9 12 15 18 20 22 23 27 30 32 32 32 32 33
16 14 19 11 8 12 7 26 40 33 43 34 63 59 61 41 49 37 28 23 32 28 18 19 16 14 11 8 9 9 6 5 2 1 4 9 12 16 18 20 21 24 26 29 30 31 32 32 32
15 3 16 10 2 9 14 25 46 68 59 27 22 42 29 27 43 32 35 27 23 20 14 19 16 15 11 9 9 8 7 5 6 7 10 12 16 19 19 19 19 21 23 24 27 29 30 32 35
9 23 16 16 25 44 57 39 53 66 44 10 45 32 41 41 38 33 27 26 34 23 23 16 16 14 12 10 9 8 6 5 8 11 14 16 19 20 18 17 16 16 16 18 22 24 27 28 30
18 20 9 16 42 16 55 85 101 41 66 16 47 35 36 34 33 30 36 37 31 28 22 19 12 12 11 10 10 8 4 8 10 12 14 17 18 17 15 14 12 9 9 9 13 18 21 25 32
27 36 18 2 50 29 72 99 87 50 28 63 57 42 18 20 29 38 42 46 37 32 25 22 19 13 10 8 7 4 2 5 8 10 12 14 15 14 12 9 7 5 4 1 8 16 22 28 33
28 24 9 27 20 29 49 50 45 33 46 24 48 35 25 29 30 40 45 42 35 29 25 23 18 14 8 6 5 5 3 2 4 7 9 11 12 11 9 7 5 6 6 7 11 18 23 29 30
39 21 10 33 11 6 36 29 64 45 5 44 35 27 35 29 40 37 35 39 35 36 29 21 14 11 14 6 7 6 3 2 5 5 5 6 6 8 10 13 13 11 12 15 16 20 26 29 28
29 13 11 7 26 21 47 23 43 41 64 79 71 58 39 37 36 40 36 33 35 30 29 24 16 9 4 3 3 3 3 2 3 6 7 6 12 9 12 15 13 23 29 29 25 22 21 14 25
12 25 5 21 31 26 45 16 57 27 48 50 56 45 37 45 44 43 40 37 24 24 16 18 19 23 13 7 6 15 5 4 9 2 9 4 16 31 13 21 35 37 35 23 15 12 11 14 13
12 6 7 31 23 35 39 45 49 49 27 38 36 39 43 44 44 46 42 40 32 24 25 31 17 23 16 15 9 7 5 13 14 20 22 16 18 35 15 18 41 37 29 10 11 6 12 10 10
5 15 19 15 11 35 31 25 52 60 33 37 36 34 29 34 36 35 36 31 28 29 28 24 16 28 25 23 17 6 12 7 11 15 24 26 42 31 24 34 9 13 10 1 14 19 19 19 20
6 11 23 27 42 47 48 45 38 45 37 35 37 39 43 45 39 40 36 36 30 26 24 29 27 19 19 13 16 11 9 10 16 21 28 23 33 40 43 37 48 38 30 24 37 43 37 26 20
17 14 19 25 36 34 44 33 22 25 31 37 37 43 42 41 33 29 27 33 26 25 26 21 23 21 19 15 8 4 5 10 11 29 36 42 44 44 48 48 52 49 51 57 55 53 57 37 45
54 33 40 8 21 26 55 36 26 23 28 39 44 39 35 31 24 27 26 26 28 32 32 39 33 36 28 25 21 12 15 14 17 20 26 31 35 34 35 38 43 48 51 57 52 49 44 39 39
51 30 16 52 75 36 46 15 37 32 29 40 37 33 32 28 28 29 29 30 32 38 30 26 28 26 25 26 23 24 32 21 33 28 30 25 26 25 26 30 33 35 35 33 27 40 42 37 39
13 20 22 20 85 58 14 25 35 39 35 46 38 33 29 27 30 29 28 30 28 21 27 27 29 27 24 25 17 19 21 23 30 13 13 37 39 31 31 31 27 30 31 36 39 41 36 39 34
19 10 18 31 61 14 15 28 39 47 45 42 35 30 26 24 28 28 29 24 20 22 21 27 27 33 24 26 23 21 19 21 25 20 26 22 25 19 23 30 32 39 33 37 39 35 30 32 27
18 9 7 7 15 28 10 29 30 52 45 40 31 23 21 23 26 22 18 17 18 14 22 24 29 33 32 30 28 25 28 20 22 14 19 15 19 24 29 35 32 29 29 32 33 33 31 27 18
25 11 11 7 20 35 29 16 22 49 47 44 33 26 24 23 27 17 25 8 12 12 11 17 23 36 31 35 30 29 26 31 14 24 28 20 36 30 35 31 32 31 33 34 30 35 36 31 22
18 22 25 34 20 34 10 24 34 34 37 33 22 31 26 26 27 26 18 15 14 18 15 26 26 34 25 26 33 31 30 33 37 37 34 34 31 32 26 31 31 31 33 31 32 34 28 25 20
18 21 32 36 34 20 16 5 8 10 15 15 26 37 33 33 27 23 21 14 28 11 25 26 24 20 24 37 35 37 32 34 35 29 28 28 30 28 29 34 26 31 31 31 33 29 23 18 20
23 33 31 40 39 11 0 10 9 26 21 13 28 29 36 30 23 16 16 22 16 15 18 26 24 26 33 46 38 37 34 34 31 33 29 23 19 23 27 30 24 26 27 24 22 20 15 14 17
23 33 45 35 18 7 10 2 14 17 13 25 24 31 26 17 8 14 15 25 20 17 23 31 32 39 49 46 34 39 44 39 35 36 29 25 24 24 29 29 27 22 20 18 16 15 14 15 18
40 35 21 20 22 23 14 28 15 31 31 28 24 18 15 11 10 13 15 20 19 30 27 16 30 38 39 33 38 45 38 33 34 35 35 33 29 30 29 24 20 15 14 15 14 11 10 10 10
25 25 20 30 28 29 36 13 9 26 27 18 18 18 11 12 22 30 19 24 30 21 24 32 32 31 34 41 43 41 37 36 38 38 35 24 24 25 26 19 12 13 14 16 18 16 9 5 6
14 24 26 22 33 18 15 16 7 8 13 19 23 10 11 29 24 23 27 22 18 30 32 28 30 40 40 44 35 35 39 37 38 35 32 23 22 20 17 14 13 15 12 15 22 25 15 15 13
26 28 16 15 17 22 18 25 11 18 15 20 17 39 28 19 24 31 36 28 29 32 36 37 38 35 41 38 33 35 38 48 34 37 31 23 18 15 18 20 14 11 15 14 19 28 20 21 18
19 22 14 7 5 9 7 13 17 27 20 23 29 29 29 30 23 29 32 32 36 37 38 39 40 34 34 35 40 48 47 31 32 38 30 26 17 18 21 21 22 22 12 13 18 24 23 23 25
23 15 19 12 20 18 29 10 18 23 21 27 27 25 20 23 31 31 35 35 38 34 34 38 33 32 33 31 42 41 39 38 35 38 29 23 20 17 17 14 13 15 15 13 14 7 8 12 18
Wind_Direction_850mb
313 346 5 292 50 165 247 145 259 83 69 71 78 77 74 59 86 110 100 79 93 78 96 109 102 99 96 99 102 105 119 127 138 103 100 115 120 121 118 114 109 104 97 92 86 77 68 60 54
306 288 268 83 75 295 104 159 95 93 54 86 99 85 71 70 87 96 108 93 86 84 102 107 97 91 96 95 107 121 138 169 208 116 133 143 136 127 123 118 113 106 101 91 80 71 63 55 49
289 201 265 119 163 270 262 105 74 33 118 122 73 62 46 54 79 102 109 102 90 85 99 91 87 90 82 89 99 111 137 164 167 171 169 160 148 147 143 132 121 110 97 88 78 65 56 48 42
287 246 237 212 191 214 247 84 76 32 356 180 99 75 67 75 88 99 86 109 93 94 51 67 81 76 81 102 109 107 148 171 171 176 171 161 159 157 151 136 123 112 102 93 75 57 44 36 30
256 262 246 261 291 96 75 72 75 82 322 16 89 100 88 91 89 95 107 102 101 76 63 43 60 75 90 110 124 136 186 182 174 176 170 166 166 162 152 146 139 122 107 87 52 32 24 19 17
266 251 80 60 251 81 85 88 81 77 236 271 114 104 94 111 100 107 100 90 90 90 73 45 57 66 76 106 135 127 182 182 180 176 171 172 173 173 168 165 159 165 167 104 17 13 10 8 8
260 286 115 217 301 56 121 100 121 186 225 223 125 96 124 112 108 94 92 82 83 71 48 62 41 46 77 89 88 85 102 163 176 171 177 179 183 191 197 213 231 254 269 308 336 347 351 356 3
260 294 295 216 170 174 88 119 131 160 190 54 118 124 118 119 90 95 85 81 80 70 59 71 76 57 65 71 105 107 53 188 206 197 198 205 231 251 261 264 265 261 291 301 315 326 337 348 9
259 268 346 340 135 71 44 22 117 95 82 75 79 98 111 106 108 107 95 87 80 77 53 65 38 35 36 90 153 88 125 164 100 29 315 290 294 309 283 284 278 299 313 303 305 326 353 12 15
85 303 156 13 39 118 122 127 97 71 77 65 65 73 76 86 77 78 75 75 84 86 44 88 79 26 51 111 98 117 145 124 127 148 257 244 303 260 217 277 289 285 288 295 296 360 10 26 350
51 237 76 45 56 102 98 62 63 118 68 67 74 68 69 70 71 73 70 74 71 78 72 61 80 42 28 53 106 144 213 257 261 240 228 224 265 263 253 279 264 264 262 251 249 263 215 219 293
19 359 62 43 24 73 79 73 69 73 87 83 81 82 86 92 90 88 78 74 70 80 66 62 66 48 58 68 63 59 127 229 227 234 241 234 237 266 261 267 282 22 350 220 189 235 211 241 296
152 78 78 70 77 83 85 79 86 76 84 87 86 83 87 85 83 81 83 88 72 74 65 52 50 63 66 48 48 49 59 250 230 241 244 262 243 256 268 271 287 290 280 276 274 266 250 256 295
98 122 128 142 134 127 104 95 60 87 97 89 88 86 85 79 83 93 96 84 81 75 65 41 41 38 34 40 63 64 343 283 263 259 262 270 274 271 269 262 270 272 276 284 280 272 267 275 302
52 31 7 119 151 124 119 64 99 120 111 103 91 88 87 84 88 84 83 82 70 67 65 50 27 25 25 27 13 353 347 305 297 283 285 281 285 283 279 275 272 273 278 276 277 281 298 285 290
76 58 21 313 321 329 222 165 133 150 132 118 102 95 95 89 87 91 88 84 76 67 54 54 53 37 23 20 4 350 353 348 343 334 341 348 335 321 313 307 301 294 293 285 267 277 289 280 283
332 124 156 223 255 254 1 141 149 164 140 115 108 104 100 101 98 92 86 81 71 61 55 49 22 45 29 356 12 340 340 327 322 324 336 330 331 336 341 338 331 324 311 300 295 292 291 280 289
187 141 117 215 269 286 109 111 155 152 125 115 117 119 117 115 104 91 73 74 78 63 49 34 27 10 29 6 6 346 342 341 312 315 326 335 330 333 325 319 318 308 309 311 308 307 293 284 279
1 143 63 306 301 311 344 144 157 125 126 116 123 123 122 123 102 96 108 105 75 32 44 28 19 13 8 6 359 350 340 341 326 346 333 290 303 310 311 298 287 287 293 303 306 294 287 285 261
322 353 80 277 249 255 294 194 144 141 122 122 142 144 143 142 139 120 94 95 70 53 34 360 357 354 348 10 1 341 347 331 343 347 335 320 328 316 319 303 291 289 291 290 295 296 292 265 235
23 355 343 325 257 273 294 37 48 37 87 123 122 133 124 117 111 104 90 65 31 16 356 5 358 6 358 354 346 330 323 307 327 320 320 316 320 311 320 306 298 286 284 289 290 298 296 264 230
346 352 324 312 308 332 92 262 137 62 60 148 131 107 114 113 101 96 87 46 336 356 23 11 2 8 344 342 342 332 336 328 317 328 311 320 321 333 320 303 312 301 299 293 289 299 296 274 251
344 327 297 293 284 68 352 124 79 150 229 144 103 106 113 111 102 105 3 40 12 2 17 5 347 339 334 341 338 332 319 318 318 315 316 319 341 331 311 323 312 318 311 309 301 306 302 276 261
295 319 310 295 303 302 126 351 40 31 101 108 106 106 103 105 75 353 67 21 20 9 354 342 357 349 341 348 344 334 335 337 339 338 335 338 333 305 318 319 320 317 325 330 336 334 308 284 272
353 335 324 347 327 335 346 67 39 64 64 104 123 120 112 68 21 57 55 23 4 356 351 1 343 349 350 338 340 342 348 351 347 340 332 336 337 324 335 339 340 342 357 5 354 343 331 316 292
341 346 344 325 316 301 46 61 32 59 90 103 119 125 77 53 42 42 39 16 350 14 357 345 354 353 338 333 345 353 345 337 332 327 328 324 311 325 331 345 359 13 28 17 16 344 335 329 353
9 337 328 286 277 273 122 93 84 131 90 85 109 72 37 59 47 26 350 5 36 19 8 9 4 352 346 353 356 344 344 349 343 347 343 338 332 339 10 23 20 36 39 29 19 25 37 69 87
2 328 348 332 322 338 103 80 75 107 108 91 61 78 76 59 50 18 56 42 24 9 354 346 345 348 359 0 350 344 349 345 345 352 348 347 1 33 57 43 45 58 61 45 39 42 60 61 73
17 8 350 359 302 338 274 78 77 85 62 78 88 72 59 57 20 30 33 23 13 4 360 3 6 3 4 356 352 350 352 6 1 359 2 14 26 53 67 50 36 40 47 39 37 38 36 48 46
59 20 10 349 343 39 328 65 76 59 58 92 92 75 61 24 34 11 22 12 3 7 359 2 10 12 14 2 359 1 11 17 11 9 21 34 39 51 42 43 30 23 32 25 38 37 37 30 31